When you browse on this site, cookies collect data to enhance your experience and personalize the content and advertising you see.
Visit our Privacy Policy to learn more. By continuing to use the site, you agree to this use of cookies and data.
  • In Netherlands
  • List of Countries
  • For 7 days
  • Water Temperature
  • Satellite Maps
  • Weather Map
  • Weather Widgets
  • user-avatar
    Login

    Hourly Weather Bristol

    Today, 27 June, Thursday

    Time Temperature Precipitation Wind Pressure Humidity
    00:00 +13°C° 0 mm 6 mps 770 mmHg 87%
    01:00 +13°C° 0 mm 6 mps 770 mmHg 88%
    02:00 +11°C° 0 mm 6 mps 770 mmHg 89%
    03:00 +11°C° 0 mm 6 mps 769 mmHg 90%
    04:00 +11°C° 0 mm 6 mps 769 mmHg 89%
    05:00 +11°C° 0 mm 7 mps 769 mmHg 88%
    06:00 +11°C° 0 mm 7 mps 769 mmHg 86%
    07:00 +14°C° 0 mm 7 mps 769 mmHg 82%
    08:00 +15°C° 0 mm 7 mps 770 mmHg 78%
    09:00 +17°C° 0 mm 7 mps 770 mmHg 75%
    10:00 +18°C° 0 mm 7 mps 770 mmHg 73%
    11:00 +20°C° 0 mm 7 mps 769 mmHg 72%
    12:00 +21°C° 0 mm 7 mps 769 mmHg 70%
    13:00 +22°C° 0 mm 7 mps 769 mmHg 71%
    14:00 +22°C° 0 mm 7 mps 769 mmHg 71%
    15:00 +23°C° 0 mm 8 mps 768 mmHg 71%
    16:00 +22°C° 0 mm 7 mps 768 mmHg 74%
    17:00 +22°C° 0 mm 7 mps 768 mmHg 76%
    18:00 +21°C° 0 mm 7 mps 767 mmHg 78%
    19:00 +20°C° 0 mm 7 mps 767 mmHg 78%
    20:00 +19°C° 0 mm 6 mps 768 mmHg 78%
    21:00 +16°C° 0 mm 6 mps 768 mmHg 78%
    22:00 +16°C° 0 mm 6 mps 768 mmHg 79%
    23:00 +15°C° 0 mm 6 mps 768 mmHg 79%

    Tomorrow, 28 June, Friday

    Time Temperature Precipitation Wind Pressure Humidity
    00:00 +14°C° 0 mm 6 mps 768 mmHg 80%
    01:00 +13°C° 0 mm 6 mps 767 mmHg 81%
    02:00 +13°C° 0 mm 6 mps 767 mmHg 82%
    03:00 +11°C° 0 mm 6 mps 767 mmHg 84%
    04:00 +11°C° 0 mm 6 mps 767 mmHg 84%
    05:00 +13°C° 0 mm 6 mps 766 mmHg 84%
    06:00 +13°C° 0 mm 6 mps 766 mmHg 85%
    07:00 +15°C° 0 mm 6 mps 766 mmHg 82%
    08:00 +16°C° 0 mm 6 mps 766 mmHg 79%
    09:00 +18°C° 0 mm 7 mps 766 mmHg 76%
    10:00 +20°C° 0 mm 6 mps 765 mmHg 74%
    11:00 +22°C° 0 mm 6 mps 765 mmHg 72%
    12:00 +23°C° 0 mm 6 mps 765 mmHg 70%
    13:00 +24°C° 0 mm 6 mps 764 mmHg 70%
    14:00 +24°C° 0 mm 6 mps 764 mmHg 69%
    15:00 +26°C° 0 mm 6 mps 764 mmHg 69%
    16:00 +24°C° 0 mm 6 mps 764 mmHg 71%
    17:00 +23°C° 0 mm 5 mps 763 mmHg 73%
    18:00 +23°C° 0 mm 5 mps 763 mmHg 76%
    19:00 +21°C° 0 mm 5 mps 763 mmHg 78%
    20:00 +19°C° 0 mm 4 mps 763 mmHg 81%
    21:00 +17°C° 0 mm 4 mps 763 mmHg 84%
    22:00 +17°C° 0 mm 3 mps 763 mmHg 86%
    23:00 +16°C° 0 mm 3 mps 763 mmHg 87%

    Day after tomorrow, 29 June, Saturday

    Time Temperature Precipitation Wind Pressure Humidity
    00:00 +16°C° 0 mm 3 mps 762 mmHg 89%
    01:00 +14°C° 0 mm 3 mps 762 mmHg 90%
    02:00 +14°C° 0 mm 3 mps 762 mmHg 90%
    03:00 +15°C° 0 mm 2 mps 761 mmHg 91%
    04:00 +16°C° 0 mm 2 mps 761 mmHg 90%
    05:00 +16°C° 0 mm 2 mps 761 mmHg 89%
    06:00 +17°C° 0 mm 2 mps 761 mmHg 88%
    07:00 +19°C° 0 mm 2 mps 760 mmHg 85%
    08:00 +21°C° 0 mm 2 mps 760 mmHg 83%
    09:00 +23°C° 0 mm 2 mps 760 mmHg 81%
    10:00 +25°C° 0 mm 3 mps 760 mmHg 79%
    11:00 +26°C° 0 mm 3 mps 759 mmHg 77%
    12:00 +27°C° 0 mm 3 mps 759 mmHg 75%
    13:00 +26°C° 0 mm 4 mps 759 mmHg 78%
    14:00 +26°C° 0 mm 4 mps 759 mmHg 80%
    15:00 +25°C° 0 mm 4 mps 759 mmHg 83%
    16:00 +23°C° 0 mm 5 mps 759 mmHg 83%
    17:00 +22°C° 0 mm 5 mps 759 mmHg 83%
    18:00 +21°C° 0 mm 5 mps 758 mmHg 83%
    19:00 +19°C° 0 mm 5 mps 759 mmHg 84%
    20:00 +18°C° 0 mm 4 mps 759 mmHg 84%
    21:00 +15°C° 0 mm 4 mps 759 mmHg 85%
    22:00 +15°C° 0 mm 4 mps 759 mmHg 87%
    23:00 +14°C° 0 mm 3 mps 760 mmHg 89%

    30 June, Sunday

    Time Temperature Precipitation Wind Pressure Humidity
    00:00 +13°C° 0 mm 3 mps 760 mmHg 92%
    01:00 +13°C° 0 mm 3 mps 760 mmHg 93%
    02:00 +13°C° 0 mm 3 mps 760 mmHg 94%
    03:00 +13°C° 0 mm 3 mps 760 mmHg 96%
    04:00 +14°C° 0 mm 3 mps 760 mmHg 94%
    05:00 +14°C° 0 mm 4 mps 760 mmHg 92%
    06:00 +15°C° 0 mm 4 mps 761 mmHg 90%
    07:00 +17°C° 0 mm 4 mps 761 mmHg 87%
    08:00 +18°C° 0 mm 4 mps 761 mmHg 84%
    09:00 +19°C° 0 mm 4 mps 762 mmHg 80%
    10:00 +19°C° 0 mm 4 mps 762 mmHg 78%
    11:00 +20°C° 0 mm 5 mps 762 mmHg 75%
    12:00 +21°C° 0 mm 5 mps 762 mmHg 73%
    13:00 +21°C° 0 mm 5 mps 762 mmHg 72%
    14:00 +21°C° 0 mm 6 mps 762 mmHg 72%
    15:00 +21°C° 0 mm 6 mps 761 mmHg 72%
    16:00 +20°C° 0 mm 6 mps 761 mmHg 74%
    17:00 +19°C° 0 mm 6 mps 762 mmHg 76%
    18:00 +17°C° 0 mm 6 mps 762 mmHg 79%
    19:00 +16°C° 0 mm 5 mps 762 mmHg 82%
    20:00 +15°C° 0 mm 5 mps 762 mmHg 85%
    21:00 +14°C° 0 mm 4 mps 762 mmHg 89%
    22:00 +13°C° 0 mm 4 mps 762 mmHg 90%
    23:00 +13°C° 0 mm 4 mps 762 mmHg 90%

    1 July, Monday

    Time Temperature Precipitation Wind Pressure Humidity
    00:00 +13°C° 0 mm 4 mps 763 mmHg 91%
    01:00 +12°C° 0 mm 4 mps 763 mmHg 91%
    02:00 +12°C° 0 mm 3 mps 763 mmHg 92%
    03:00 +11°C° 0 mm 3 mps 763 mmHg 92%
    04:00 +12°C° 0 mm 3 mps 763 mmHg 89%
    05:00 +12°C° 0 mm 3 mps 763 mmHg 86%
    06:00 +12°C° 0 mm 3 mps 764 mmHg 83%
    07:00 +13°C° 0 mm 4 mps 764 mmHg 79%
    08:00 +14°C° 0 mm 5 mps 764 mmHg 75%
    09:00 +15°C° 0 mm 5 mps 764 mmHg 70%
    10:00 +15°C° 0 mm 5 mps 764 mmHg 69%
    11:00 +16°C° 0 mm 5 mps 765 mmHg 69%
    12:00 +16°C° 0 mm 5 mps 765 mmHg 68%
    13:00 +17°C° 0 mm 5 mps 765 mmHg 68%
    14:00 +17°C° 0 mm 5 mps 765 mmHg 68%
    15:00 +17°C° 0 mm 5 mps 765 mmHg 69%
    16:00 +18°C° 0 mm 4 mps 765 mmHg 71%
    17:00 +17°C° 0 mm 4 mps 765 mmHg 72%
    18:00 +17°C° 0 mm 4 mps 765 mmHg 74%
    19:00 +16°C° 0 mm 3 mps 765 mmHg 78%
    20:00 +14°C° 0 mm 3 mps 766 mmHg 83%
    21:00 +13°C° 0 mm 3 mps 766 mmHg 87%
    22:00 +14°C° 0 mm 2 mps 766 mmHg 88%
    23:00 +13°C° 0 mm 2 mps 766 mmHg 89%

    2 July, Tuesday

    Time Temperature Precipitation Wind Pressure Humidity
    00:00 +13°C° 0 mm 2 mps 766 mmHg 90%
    01:00 +12°C° 0 mm 2 mps 766 mmHg 89%
    02:00 +10°C° 0 mm 2 mps 766 mmHg 88%
    03:00 +10°C° 0 mm 3 mps 767 mmHg 87%
    04:00 +10°C° 0 mm 3 mps 767 mmHg 86%
    05:00 +10°C° 0 mm 3 mps 767 mmHg 84%
    06:00 +11°C° 0 mm 4 mps 767 mmHg 82%
    07:00 +12°C° 0 mm 4 mps 767 mmHg 81%
    08:00 +13°C° 0 mm 4 mps 767 mmHg 80%
    09:00 +14°C° 0 mm 4 mps 768 mmHg 78%
    10:00 +15°C° 0 mm 4 mps 768 mmHg 77%
    11:00 +17°C° 0 mm 4 mps 768 mmHg 75%
    12:00 +17°C° 0 mm 4 mps 768 mmHg 74%
    13:00 +17°C° 0 mm 4 mps 768 mmHg 73%
    14:00 +18°C° 0 mm 3 mps 768 mmHg 73%
    15:00 +18°C° 0 mm 3 mps 768 mmHg 72%
    16:00 +18°C° 0 mm 3 mps 768 mmHg 72%
    17:00 +18°C° 0 mm 3 mps 768 mmHg 73%
    18:00 +18°C° 0 mm 3 mps 768 mmHg 73%
    19:00 +16°C° 0 mm 3 mps 768 mmHg 77%
    20:00 +15°C° 0 mm 2 mps 768 mmHg 81%
    21:00 +13°C° 0 mm 2 mps 768 mmHg 85%
    22:00 +13°C° 0 mm 2 mps 768 mmHg 86%
    23:00 +12°C° 0 mm 2 mps 768 mmHg 88%
    Show more